Location: Bergstedt
(53.6738°N, 10.1427°E)
Time: 16:13:58
(UTC+00:00)

Daily predictions for brighter satellites

Satellite Brightness Start Highest point End
(mag) Time Altitude Azimuth Time Altitude Azimuth Time Altitude Azimuth
Cosmos 2315 Rocket 4.1 18:30:14 10° S 18:36:31 71° E 18:42:53 10° NNE
Cosmos 1626 Rocket 3.8 18:32:40 10° NNW 18:37:05 79° W 18:41:26 10° S
Cosmos 2369 Rocket 2.3 18:31:46 10° NNW 18:37:32 89° ENE 18:43:13 10° SSE
STARLINK-1269 3.7 18:34:57 10° WSW 18:39:04 69° SSE 18:43:12 10° E
Resurs 01 Rocket 2.6 18:35:52 10° ESE 18:39:41 29° ENE 18:43:31 10° N
Cosmos 1626 3.4 18:36:10 10° NNW 18:39:45 46° W 18:43:18 10° SSW
FREGAT/IRIS 2.3 18:37:10 10° SSE 18:39:53 82° E 18:42:38 10° NNW
Aureole 3 4.2 18:36:49 10° SSE 18:41:20 51° E 18:47:04 10° NNE
Cosmos 1733 4.3 18:38:12 10° SSW 18:41:52 50° WNW 18:45:35 10° N
Cosmos 1943 Rocket 2.5 18:38:01 10° NW 18:43:33 69° WSW 18:49:04 10° SSE
IRIDIUM 104 4.4 18:38:39 10° N 18:43:50 58° E 18:48:58 10° SSE
Cosmos 1437 3.1 18:41:03 10° N 18:43:57 40° ENE 18:46:50 10° SE
STARLINK-1200 3.6 18:39:54 10° WSW 18:44:02 71° SSE 18:48:10 10° E
Cosmos 1709 Rocket 4.4 18:38:24 10° NNW 18:44:34 68° W 18:50:38 10° S
ADEOS Rocket 3.6 18:37:55 10° NNE 18:44:40 67° WNW 18:50:40 10° SSW
CZ-2C R/B 4.5 18:42:25 10° NNE 18:46:44 33° E 18:50:57 10° SSE
Cosmos 1602 Rocket 3.7 18:42:22 10° NNW 18:46:52 80° W 18:51:16 10° S
STARLINK-1192 3.6 18:44:53 10° WSW 18:49:01 73° SSE 18:53:09 10° E
Cosmos 2263 4.2 18:47:13 10° NNW 18:52:53 87° ENE 18:58:30 10° SSE
IRIDIUM 114 4.3 18:47:47 10° N 18:53:01 68° E 18:58:13 10° SSE
Cosmos 1470 2.8 18:49:37 10° SSW 18:53:31 85° W 18:57:28 10° N
STARLINK-1244 3.6 18:49:51 10° WSW 18:53:59 74° SSE 18:58:08 10° E
Cosmos 1908 4.5 18:53:11 10° SE 18:56:12 22° E 18:59:15 10° NE
Ariane Rocket 3.7 18:52:39 10° S 18:57:39 59° WSW 19:02:40 10° NNW
Aureole 2 Rocket 3.3 18:55:02 10° NW 18:58:27 50° WSW 19:01:48 10° S
STARLINK-1138 3.6 18:54:49 10° WSW 18:58:58 76° S 19:03:04 10° E
Cosmos 2074 Rocket 4.0 18:53:16 10° N 18:59:34 72° ENE 19:05:51 10° SSE
Abrixas rocket 3.3 18:57:07 10° SW 18:59:35 24° SSE 19:01:18 15° ESE
STARLINK-67 2.3 18:57:27 10° W 19:00:02 75° S 19:01:57 16° ESE
ATLAS 2AS CENTAUR R/B 3.0 18:54:18 10° NW 19:02:08 77° NE 19:08:47 13° SE
IRIDIUM 103 4.3 18:56:57 10° N 19:02:13 80° E 19:07:27 10° S
Cosmos 1726 Rocket 4.4 18:59:10 10° SSE 19:02:59 29° E 19:06:50 10° NNE
STARLINK-1143 3.6 18:59:44 10° WSW 19:03:53 77° S 19:07:48 11° E
ISS -1.5 19:01:50 10° W 19:04:14 18° SSW 19:06:38 10° SSE
Cosmos 1825 Rocket 3.6 19:00:10 10° N 19:04:36 67° ENE 19:08:57 10° SSE
USA 234 4.1 19:00:03 10° ENE 19:05:26 26° SE 19:10:46 10° S
Cosmos 1943 3.6 19:00:20 10° S 19:05:31 38° ESE 19:10:45 10° NE
STARLINK-1241 3.6 19:04:46 10° WSW 19:08:55 79° S 19:12:39 13° E
SL-08 RB Rocket 3.8 19:05:20 10° SSE 19:09:53 81° WSW 19:14:32 10° NNW
Spot 2 Rocket 4.3 19:06:12 13° ESE 19:10:10 35° ENE 19:14:47 10° N
STARLINK-1239 3.6 19:09:45 10° W 19:13:54 80° S 19:17:26 14° E
SPOT 3 Rocket 3.6 19:08:48 10° SSE 19:14:02 90° SSW 19:19:17 10° NNW
SeaSat 1 3.5 19:10:59 10° NNE 19:15:45 49° NW 19:20:29 10° WSW
Cosmos 1758 Rocket 3.6 19:12:00 10° NNW 19:16:23 83° W 19:20:43 10° S
STARLINK-1240 3.6 19:14:43 10° W 19:18:53 81° S 19:22:12 15° E
SJ-6B 3.7 19:16:26 10° S 19:20:28 53° W 19:24:32 10° NNW
MOS 1 Rocket 3.9 19:16:13 10° NNE 19:21:20 47° E 19:26:33 10° S
Cosmos 1953 Rocket 3.6 19:19:07 10° N 19:23:35 72° ENE 19:27:53 11° SSE
STARLINK-1216 3.6 19:19:42 10° W 19:23:52 82° S 19:27:00 17° E
CZ-4C R/B 3.8 19:18:25 10° WNW 19:24:03 36° N 19:30:42 10° ENE
SL-16 R/B 3.1 19:21:16 10° SW 19:26:48 52° NW 19:32:21 10° NNE
STARLINK-1237 3.5 19:24:41 10° W 19:28:51 82° S 19:31:47 19° E
CZ-2C R/B 4.2 19:25:33 10° SSW 19:30:11 41° W 19:34:43 10° NNW
Cosmos 1818 4.0 19:25:33 10° S 19:30:33 38° ESE 19:35:34 10° NE
Cosmos 921 Rocket 3.4 19:26:35 10° NNW 19:30:37 43° ENE 19:32:49 23° ESE
Terra 3.5 19:28:43 14° E 19:30:51 19° NE 19:34:11 10° N
Cosmos 1606 Rocket 3.6 19:26:35 10° S 19:30:57 63° E 19:35:23 10° NNE
BREEZE M DEB (TANK) 4.4 19:26:08 10° SW 19:33:02 25° SSE 19:34:30 21° SE
STARLINK-1233 2.8 19:30:01 10° W 19:33:10 79° S 19:34:37 29° ESE
SL-24 R/B 3.9 19:28:47 10° NNE 19:33:18 78° ESE 19:37:16 10° S
CZ-2C R/B 2.7 19:28:20 10° NNE 19:33:25 53° E 19:38:28 10° S
STARLINK-1212 2.8 19:30:28 10° W 19:33:36 78° S 19:35:02 29° ESE
STARLINK-1202 3.5 19:29:39 10° W 19:33:48 83° S 19:36:33 21° E
STARLINK-1105 2.8 19:30:55 10° W 19:34:03 78° S 19:35:29 30° ESE
STARLINK-1206 2.8 19:31:24 10° W 19:34:31 78° S 19:35:53 30° ESE
Cosmos 614 Rocket 4.4 19:30:00 10° S 19:34:47 38° ESE 19:39:36 10° NE
STARLINK-1247 2.8 19:31:51 10° W 19:34:58 78° S 19:36:19 31° ESE
STARLINK-1203 3.5 19:30:59 10° W 19:35:07 83° S 19:37:45 22° E
Cosmos 1656 Rocket 3.9 19:29:40 10° NW 19:35:21 72° WSW 19:40:14 14° SSE
STARLINK-1227 2.8 19:32:15 10° W 19:35:24 78° S 19:36:46 31° ESE
Cosmos 407 Rocket 4.1 19:31:18 10° SSE 19:35:52 33° ESE 19:40:26 10° NE
STARLINK-1218 2.8 19:32:45 10° W 19:35:53 78° S 19:37:11 32° ESE
STARLINK-1226 2.8 19:33:11 10° W 19:36:19 78° S 19:37:37 32° ESE
STARLINK-1254 2.8 19:33:36 10° W 19:36:45 78° S 19:38:04 32° ESE
Cosmos 2228 2.9 19:32:45 10° S 19:37:01 67° E 19:41:20 10° NNE
STARLINK-1215 2.8 19:34:06 10° W 19:37:14 78° S 19:38:29 33° ESE
STARLINK-1231 2.8 19:34:34 10° W 19:37:42 77° S 19:38:56 33° ESE
STARLINK-1232 2.8 19:35:28 10° W 19:38:35 77° S 19:39:48 34° ESE
STARLINK-1217 2.8 19:35:54 10° W 19:39:02 77° S 19:40:14 34° ESE
SPOT 1/Viking Rocket 4.2 19:36:25 21° ESE 19:39:23 40° ENE 19:44:15 10° N
STARLINK-1208 2.8 19:36:19 10° W 19:39:28 77° S 19:40:40 34° ESE
STARLINK-1229 2.8 19:36:47 10° W 19:39:55 77° S 19:41:04 35° ESE
STARLINK-1271 2.8 19:37:15 10° W 19:40:23 77° S 19:41:32 35° ESE
STARLINK-1270 2.8 19:37:43 10° W 19:40:50 77° S 19:41:57 36° ESE
Cosmos 1295 Rocket 4.5 19:34:39 10° N 19:40:57 72° ENE 19:46:25 14° SSE
STARLINK-1154 2.8 19:38:09 10° W 19:41:16 76° S 19:42:23 36° ESE
SAR-Lupe-2 4.2 19:38:03 10° NNE 19:41:21 33° E 19:42:09 30° SE
IGS 5A 4.2 19:39:45 25° ESE 19:41:31 37° ENE 19:45:22 10° N
STARLINK-1197 2.8 19:39:03 10° W 19:42:11 76° S 19:43:15 37° ESE
STARLINK-1189 2.8 19:39:31 10° W 19:42:39 76° S 19:43:42 38° ESE
STARLINK-1198 2.8 19:39:57 10° W 19:43:05 76° S 19:44:07 38° ESE
STARLINK-1188 2.8 19:40:24 10° W 19:43:32 76° S 19:44:33 38° ESE
STARLINK-1246 3.5 19:39:35 10° W 19:43:44 83° S 19:46:06 25° E
Cosmos 2341 Rocket 4.2 19:37:44 10° N 19:44:03 59° ENE 19:48:37 19° SSE
STARLINK-1235 2.8 19:41:02 10° W 19:44:12 72° S 19:45:11 39° ESE
COSMOS 2455 3.0 19:38:29 10° NW 19:44:32 67° NE 19:48:18 24° ESE
STARLINK-1187 2.8 19:41:22 10° W 19:44:32 74° S 19:45:33 39° ESE
BREEZE-M DEB (TANK) 4.4 19:39:12 10° W 19:44:36 33° SSW 19:45:58 23° SSE
STARLINK-1199 2.8 19:42:20 10° W 19:45:29 75° S 19:46:28 40° ESE
STARLINK-1191 2.8 19:42:48 10° W 19:45:57 75° S 19:46:54 41° ESE
STARLINK-1201 2.9 19:42:59 10° W 19:46:14 77° S 19:47:21 38° ESE
STARLINK-1210 2.8 19:43:14 10° W 19:46:23 75° S 19:47:20 41° ESE
STARLINK-1221 2.8 19:43:41 10° W 19:46:50 75° S 19:47:46 42° ESE
STARLINK-1219 2.8 19:44:08 10° W 19:47:18 75° S 19:48:12 42° ESE
Cosmos 1980 Rocket 4.2 19:43:50 10° NNW 19:47:39 18° NNE 19:51:28 10° ENE
STARLINK-1222 2.8 19:44:36 10° W 19:47:45 75° S 19:48:38 43° ESE
STARLINK-1211 2.8 19:45:03 10° W 19:48:12 75° S 19:49:04 43° ESE
STARLINK-1214 2.8 19:45:31 10° W 19:48:39 74° S 19:49:31 43° ESE
STARLINK-1224 3.5 19:44:36 10° W 19:48:46 83° S 19:50:56 28° E
STARLINK-1234 2.8 19:45:56 10° W 19:48:58 68° SSW 19:49:39 47° SE
STARLINK-1228 2.7 19:46:05 10° W 19:48:59 65° SSW 19:49:30 51° SE
Cosmos 1603 3.6 19:43:21 10° SSW 19:49:00 87° ESE 19:54:39 10° NNE
STARLINK-1245 2.8 19:45:58 10° W 19:49:05 74° S 19:49:55 45° ESE
Cosmos 1726 2.7 19:45:44 10° SSW 19:49:26 59° WNW 19:53:09 10° N
STARLINK-1238 2.8 19:46:24 10° W 19:49:32 74° S 19:50:23 44° ESE
Cosmos 1340 Rocket 3.1 19:47:46 25° SSE 19:49:48 46° E 19:53:41 10° NNE
ERS-1 Rocket 3.6 19:47:59 25° ESE 19:50:16 38° ENE 19:54:55 10° N
STARLINK-1205 2.8 19:47:20 10° W 19:50:28 74° S 19:51:14 46° ESE
STARLINK-1204 2.8 19:47:47 10° W 19:50:55 74° S 19:51:39 47° ESE
Cosmos 1328 4.4 19:47:58 10° NNW 19:51:55 58° W 19:55:27 12° S
H-2A R/B 4.0 19:47:53 10° SSW 19:52:18 27° W 19:56:40 10° NW
STARLINK-1225 3.5 19:49:33 10° W 19:53:42 83° S 19:55:40 30° E
Meteor 1-16 Rocket 4.3 19:50:14 10° SSW 19:55:38 78° WNW 20:01:15 10° NNE
Cosmos 1892 4.1 19:53:14 10° NNE 19:56:27 24° ENE 19:56:50 23° ENE
STARLINK-1230 3.5 19:54:32 10° W 19:58:43 83° S 20:00:28 34° E
STARLINK-1209 2.7 19:56:18 10° W 19:59:14 61° SSW 19:59:26 59° S
Cosmos 1703 4.4 19:59:34 10° NNW 20:03:20 42° W 20:06:52 11° SSW
STARLINK-1243 3.5 19:59:31 10° W 20:03:40 83° S 20:05:14 37° E
ATLAS CENTAUR R/B 3.4 20:00:32 10° NW 20:03:40 21° NNE 20:06:08 12° ENE
Cosmos 2218 Rocket 4.2 19:58:45 10° N 20:04:49 53° ENE 20:07:51 29° SE
Cosmos 1461 3.1 20:01:35 10° NW 20:06:04 79° SW 20:07:55 36° SSE
ERBS 2.8 20:04:22 10° WNW 20:07:43 55° NNE 20:08:37 39° ENE
Cosmos 1408 4.4 20:05:14 10° NNE 20:07:36 18° ENE 20:07:36 18° ENE
DMSP B5D2-2 4.2 20:02:38 10° NNE 20:07:52 76° WNW 20:13:05 10° SSW
STARLINK-1236 3.5 20:04:33 10° W 20:08:42 82° S 20:10:04 41° ESE
Cosmos 1953 4.3 20:05:57 10° SW 20:09:29 30° WNW 20:13:03 10° N
Cosmos 1076 Rocket 4.0 20:06:19 10° N 20:10:23 42° ENE 20:11:09 38° E
Cosmos 2251 Rocket 4.5 20:06:57 10° SW 20:12:11 51° WNW 20:17:28 10° NNE
Cosmos 2151 4.4 20:11:03 10° NNE 20:14:26 23° ENE 20:14:38 23° ENE
Resurs 01 Rocket 2.7 20:12:28 14° SSW 20:16:03 43° W 20:20:18 10° NNW
ATLAS 5 CENTAUR R/B 3.8 20:20:51 13° ENE 20:20:51 13° ENE 20:21:27 10° ENE
Cosmos 1825 4.1 20:14:51 10° NNE 20:17:14 18° ENE 20:17:14 18° ENE
In-Cosmos 22 Rocket 4.4 20:11:57 10° N 20:17:45 63° ENE 20:20:11 35° SE
STARLINK-1269 3.5 20:14:27 10° W 20:18:37 80° S 20:19:35 51° ESE
NOSS 3-4 (A) 4.2 20:13:49 10° NW 20:20:32 57° SW 20:24:57 25° SSE
NOSS 3-4 (C) 4.2 20:13:55 10° NW 20:20:39 57° SW 20:25:02 25° SSE
Cosmos 2369 Rocket 4.4 20:16:48 10° NW 20:20:50 20° W 20:24:49 10° SW
USA 245 4.4 20:18:18 26° S 20:21:34 82° WSW 20:27:54 10° NNW
Cosmos 2058 Rocket 3.1 20:18:19 17° SSW 20:21:51 81° WNW 20:26:24 10° N
Cosmos 2181 Rocket 4.1 20:18:40 28° SSE 20:21:52 57° E 20:27:55 10° NNE
STARLINK-1200 3.5 20:19:25 10° W 20:23:35 79° S 20:24:21 57° ESE
Cosmos 1300 2.6 20:23:46 61° ESE 20:23:55 62° E 20:27:43 10° NNE
Landsat 7 3.8 20:24:18 37° SSE 20:26:13 86° WSW 20:31:02 10° NNW
Cosmos 1763 Rocket 4.0 20:22:17 10° NNW 20:27:21 46° NE 20:28:47 37° E
STARLINK-1192 3.5 20:24:24 10° W 20:28:33 78° S 20:29:09 62° ESE
Nadezhda 1 Rocket 4.5 20:22:54 10° SSW 20:29:13 63° WNW 20:35:34 10° N
SL-8 Rocket 4.0 20:23:18 10° N 20:29:39 86° ENE 20:32:55 31° SSE
Cosmos 1908 4.5 20:28:09 10° SW 20:31:49 41° WNW 20:35:32 10° N
NOSS 3-3 (A) 4.2 20:26:37 10° WSW 20:32:42 74° NW 20:39:43 10° NE
NOSS 3-3 (C) 4.2 20:26:43 10° WSW 20:32:48 75° NW 20:39:49 10° NE
STARLINK-1244 3.4 20:29:23 10° W 20:33:32 77° S 20:33:56 68° SE
Cosmos 864 Rocket 4.4 20:27:50 10° N 20:34:08 75° ENE 20:36:40 38° SSE
Abrixas rocket 4.4 20:32:08 10° WSW 20:32:54 15° WSW 20:32:54 15° WSW
Cosmos 1174 4.1 20:31:24 10° NW 20:35:09 60° NE 20:35:46 53° E
CARTOSAT-1 3.5 20:36:52 61° SE 20:37:32 75° ENE 20:41:52 10° NNW
Cosmos 2058 2.7 20:33:30 10° N 20:37:37 72° ENE 20:37:54 68° ESE
STARLINK-1138 3.4 20:34:22 10° W 20:38:31 75° S 20:38:43 73° SSE
SPOT 5 2.5 20:39:20 61° SE 20:39:58 74° ENE 20:44:19 10° NNW
Cosmos 2366 rocket 3.9 20:33:49 10° N 20:40:01 83° E 20:42:32 38° SSE
SL-24 R/B - RUBIN 2 4.3 20:34:27 10° SSW 20:40:02 58° SE 20:46:18 10° NE
STARLINK-1143 3.5 20:39:17 10° W 20:43:26 73° SSW 20:43:27 73° S
Cosmos 1190 Rocket 3.9 20:40:52 12° SSW 20:45:49 89° WNW 20:51:09 10° NNE
Cosmos 2369 4.5 20:42:30 10° NNW 20:47:51 40° NE 20:49:33 33° E
STARLINK-1241 3.6 20:44:19 10° W 20:48:17 70° SW 20:48:17 70° SW
Cosmos 540 Rocket 4.3 20:43:44 10° NNW 20:48:35 38° NE 20:49:35 34° ENE
Spot 2 Rocket 4.3 20:46:23 25° SSW 20:49:04 45° W 20:53:59 10° NNW
USA 234 3.1 20:42:44 10° ENE 20:49:16 68° SSE 20:55:47 10° SW
Cosmos 1943 4.0 20:43:57 10° SW 20:49:29 51° NW 20:55:04 10° NNE
Cosmos 1959 Rocket 4.5 20:44:36 10° NNW 20:50:59 83° W 20:53:38 38° S
ATLAS 2AS CENTAUR R/B 3.8 20:45:48 10° NW 20:52:40 38° WSW 20:56:14 24° SSW
Aureole 1 Rocket 4.3 20:45:24 10° SSW 20:52:55 73° WNW 20:58:47 10° NNE
STARLINK-1239 3.7 20:49:18 10° W 20:53:04 65° SW 20:53:04 65° SW
Cosmos 1140 Rocket 3.4 20:51:22 23° SSW 20:54:38 87° WNW 20:59:52 10° NNE
Iridium 4 Rocket 3.0 20:51:57 10° N 20:56:19 77° W 20:56:43 69° SW
Cosmos 1570 Rocket 4.3 20:51:15 10° NNW 20:56:32 54° ENE 20:57:27 48° E
Meteor 2-12 Rocket 4.3 20:51:51 10° NNW 20:58:01 88° ENE 20:59:54 48° SSE
STARLINK-1240 3.9 20:54:17 10° W 20:57:51 59° WSW 20:57:51 59° WSW
RESURS DK-1 3.1 20:55:44 10° NNW 20:59:42 43° NE 20:59:42 43° NE
Cosmos 1812 Rocket 3.4 21:00:32 77° ENE 21:00:32 77° ENE 21:04:45 10° NNE
Cosmos 841 Rocket 3.9 20:55:44 10° NNW 21:00:54 49° NE 21:01:39 46° E
BREEZE M DEB (TANK) 4.0 21:02:08 45° SSE 21:02:36 46° SE 21:16:14 10° ENE
STARLINK-1216 4.1 20:59:16 10° W 21:02:39 53° WSW 21:02:39 53° WSW
Cosmos 1697 Rocket 3.1 21:00:14 10° NNW 21:05:46 51° NE 21:06:58 44° E
Terra 1.7 21:07:36 73° S 21:08:03 85° WSW 21:12:51 10° NNW
STARLINK-1237 4.3 21:04:15 10° W 21:07:26 48° WSW 21:07:26 48° WSW
Cosmos 468 Rocket 3.8 21:03:42 10° NNW 21:08:56 82° WSW 21:09:34 68° S
Cosmos 192 4.4 21:04:43 10° NNW 21:09:39 69° WSW 21:10:11 63° SSW
STARLINK-1202 4.4 21:09:13 10° W 21:12:12 43° WSW 21:12:12 43° WSW
CZ-2C R/B 4.3 21:09:01 10° N 21:13:31 31° WNW 21:17:59 10° WSW
Cosmos 676 Rocket 3.9 21:12:05 47° SSW 21:13:40 86° WNW 21:18:59 10° NNE
CZ-4C R/B 3.2 21:07:24 10° NW 21:13:54 55° NNE 21:17:32 31° E
Cosmos 1818 4.1 21:08:37 10° WSW 21:13:59 59° NW 21:19:25 10° NE
Mayak 0.3 21:11:15 10° NNE 21:13:23 25° NE 21:13:23 25° NE
SL-08 R/B 4.4 21:09:22 10° NNW 21:15:31 82° W 21:17:08 52° S
SL-16 R/B 4.1 21:11:15 10° NNW 21:15:35 22° NNE 21:18:41 14° ENE
Cosmos 407 Rocket 4.3 21:12:44 10° SW 21:17:43 48° NW 21:22:43 10° NNE
Meteor 2-10 Rocket 3.8 21:20:36 52° ENE 21:20:36 52° ENE 21:25:20 10° NNE
Cosmos 2239 Rocket 4.5 21:14:48 10° N 21:21:01 66° ENE 21:21:59 58° ESE
Cosmos 2344 4.4 21:13:19 10° NW 21:21:59 68° NNE 21:28:51 28° ESE
Cosmos 1821 Rocket 4.0 21:16:22 10° N 21:22:46 76° ENE 21:23:55 60° SE
Cosmos 489 Rocket 4.3 21:19:37 10° NNW 21:25:52 89° ENE 21:26:55 64° SSE
Thor Agena Rocket 4.4 21:21:27 10° NNE 21:25:02 35° ENE 21:25:02 35° ENE
Cosmos 2322 Rocket 4.1 21:22:40 10° NNW 21:27:00 22° NNE 21:30:00 15° ENE
ERS-1 Rocket 3.9 21:27:58 35° SW 21:29:04 39° W 21:33:49 10° NNW
COSMOS 2455 3.9 21:24:50 10° NW 21:30:09 33° WSW 21:31:27 30° SW
Cosmos 1408 Rocket 4.3 21:26:04 10° N 21:29:42 47° NE 21:29:42 47° NE
Cosmos 2208 Rocket 3.9 21:25:48 10° NNW 21:31:01 79° ENE 21:31:05 79° ENE
Spot 4 4.3 21:31:43 49° NE 21:31:43 49° NE 21:36:03 10° N
Cosmos 1892 4.0 21:28:38 10° NNW 21:31:50 37° WNW 21:31:50 37° WNW
Cosmos 1980 Rocket 2.7 21:27:39 10° NNW 21:33:06 47° NE 21:33:52 44° ENE
ASTEX 1 3.4 21:33:47 71° NE 21:33:47 71° NE 21:38:30 10° N
Cosmos 1934 Rocket 4.0 21:28:43 10° N 21:34:59 61° ENE 21:35:38 57° ESE
Cosmos 1455 3.7 21:37:01 32° NNE 21:37:01 32° NNE 21:39:12 10° NNE
Cosmos 1741 Rocket 4.3 21:39:05 56° ENE 21:39:05 56° ENE 21:43:30 10° NNE
Cosmos 1356 Rocket 4.4 21:39:45 44° NNE 21:39:45 44° NNE 21:42:45 10° NNE
Cosmos 1954 Rocket 4.4 21:37:55 38° WSW 21:39:46 60° WNW 21:44:57 10° NNE
Cosmos 2360 4.3 21:34:08 10° NNW 21:39:49 62° NE 21:40:17 60° ENE
Cosmos 1605 Rocket 4.4 21:35:33 10° N 21:41:27 47° ENE 21:41:55 46° E
Cosmos 1408 4.2 21:39:36 10° NNW 21:41:56 33° NW 21:41:56 33° NW
ATLAS CENTAUR R/B 2.5 21:39:28 10° NW 21:42:19 39° NNW 21:42:19 39° NNW
Cosmos 1656 3.8 21:44:39 10° NW 21:50:16 60° WSW 21:50:24 60° WSW
Cosmos 2151 4.0 21:47:56 10° NNW 21:51:14 42° WNW 21:51:14 42° WNW
Cosmos 2278 3.7 21:46:23 10° NNW 21:52:04 70° NE 21:52:13 70° ENE
Cosmos 1825 3.7 21:49:39 10° NNW 21:52:03 34° NW 21:52:03 34° NW
Cosmos 2082 Rocket 3.8 22:02:46 22° ENE 22:02:46 22° ENE 22:05:19 10° NE
ATLAS 5 CENTAUR R/B 2.3 22:02:17 55° N 22:02:17 55° N 22:06:40 10° NE
Cosmos 2221 4.3 22:08:57 25° NE 22:08:57 25° NE 22:11:06 10° NNE
Cosmos 1814 Rocket 4.2 22:01:40 10° NNW 22:06:34 65° W 22:06:34 65° W
COSMOS 2406 3.4 22:09:22 59° ENE 22:09:22 59° ENE 22:14:07 10° NE
ALOS 2 3.7 22:09:35 40° NNE 22:09:35 40° NNE 22:12:43 10° N
Cosmos-2242 4.1 22:09:25 44° NNW 22:09:25 44° NNW 22:12:47 10° N
Cosmos 1833 Rocket 3.4 22:21:35 42° ENE 22:21:35 42° ENE 22:25:31 10° NE
Cosmos 1850 Rocket 4.4 22:26:14 58° NW 22:26:14 58° NW 22:31:17 10° NNE
Cosmos 540 Rocket 4.4 22:25:23 10° NW 22:29:24 40° WNW 22:29:24 40° WNW
Cosmos 2369 4.3 22:26:44 10° NW 22:31:29 48° W 22:31:29 48° W
USA 234 3.4 22:25:53 10° ENE 22:32:24 74° NNW 22:38:56 10° W
Meteor 2-3 Rocket 4.3 22:37:14 10° NNW 22:42:30 49° W 22:42:30 49° W
Terra 4.1 22:46:29 14° W 22:46:33 14° W 22:49:07 10° NW
Cosmos 1697 Rocket 3.7 22:44:26 10° NW 22:48:42 36° W 22:48:42 36° W
Mayak 0.6 22:47:02 10° N 22:49:57 28° NW 22:49:57 28° NW
Cosmos 1153 Rocket 4.4 22:51:48 10° NNW 22:57:57 83° WNW 22:57:57 83° WNW
Cosmos 1727 Rocket 4.0 22:59:22 71° ENE 22:59:22 71° ENE 23:05:21 10° NNE
SL-16 R/B 2.5 22:55:10 10° NNW 23:00:33 62° NE 23:00:33 62° NE
Cosmos 1459 Rocket 4.1 22:54:55 10° N 23:01:18 67° ENE 23:01:19 67° ENE
Cosmos 1802 Rocket 4.2 22:56:34 10° N 23:02:45 58° ENE 23:02:46 58° ENE
CZ-4C R/B 2.9 22:55:55 10° NW 23:02:43 65° SW 23:02:43 65° SW
Cosmos 2360 Rocket 3.1 23:04:34 10° NNW 23:09:53 41° NE 23:10:44 38° ENE
Cosmos 2333 Rocket 4.1 23:06:25 10° NNW 23:11:04 25° NNE 23:15:07 12° E
Cosmos 2322 Rocket 2.5 23:06:31 10° NNW 23:11:48 63° NNE 23:11:48 63° NNE
Cosmos 2016 Rocket 4.3 23:05:57 10° N 23:12:15 58° ENE 23:12:25 58° E
Cosmos 2100 Rocket 3.9 23:06:55 10° N 23:12:54 81° NE 23:12:54 81° NE
Cosmos 1980 Rocket 3.3 23:11:50 10° NW 23:15:38 35° WNW 23:15:38 35° WNW
Cosmos 2173 Rocket 3.9 23:22:43 10° NNW 23:28:25 77° NW 23:28:25 77° NW
Resurs 1-4 Rocket 4.3 23:32:54 10° NE 23:35:52 15° E 23:36:00 15° E
Cosmos 2344 4.5 23:27:41 10° NW 23:36:51 56° SW 23:38:51 51° SSW
Cosmos 2082 Rocket 2.5 23:44:34 63° NNW 23:44:34 63° NNW 23:49:54 10° NNE
Cosmos 2221 4.4 23:45:47 25° NW 23:45:47 25° NW 23:48:31 10° N
ATLAS 5 CENTAUR R/B 3.7 23:43:41 13° WNW 23:47:13 30° N 23:51:56 10° NE
CZ-2D R/B 4.0 23:44:32 10° NE 23:48:23 19° E 23:48:41 19° E
SME Rocket 4.3 23:48:52 10° NNE 23:52:28 43° N 23:52:28 43° N
